Time,TemperatureF,DewpointF,PressureIn,WindDirection,WindDirectionDegrees,WindSpeedMPH,WindSpeedGustMPH,Humidity,HourlyPrecipIn,Conditions,Clouds,dailyrainin,SoftwareType,DateUTC
2013-05-09 00:01:00,59.8,51.1,29.92,SSE,158,0.0,0.0,73,0.00,,,0.00,WUHU216HW,2013-05-09 04:01:00,
2013-05-09 00:06:00,59.6,50.9,29.92,SSE,158,0.0,0.0,73,0.00,,,0.00,WUHU216HW,2013-05-09 04:06:00,
2013-05-09 00:11:00,59.4,50.8,29.92,SSE,158,0.0,0.0,73,0.00,,,0.00,WUHU216HW,2013-05-09 04:11:00,
2013-05-09 00:16:00,59.0,50.4,29.92,SSE,158,0.0,0.0,73,0.00,,,0.00,WUHU216HW,2013-05-09 04:16:00,
2013-05-09 00:21:00,58.7,50.0,29.92,SSE,158,0.0,0.0,73,0.00,,,0.00,WUHU216HW,2013-05-09 04:21:00,
2013-05-09 00:26:00,58.5,50.2,29.92,SSE,158,0.0,0.0,74,0.00,,,0.00,WUHU216HW,2013-05-09 04:26:00,
2013-05-09 00:31:00,58.3,50.0,29.93,SSE,158,0.0,0.0,74,0.00,,,0.00,WUHU216HW,2013-05-09 04:31:00,
2013-05-09 00:36:00,58.1,49.9,29.92,SSE,158,0.0,0.0,74,0.00,,,0.00,WUHU216HW,2013-05-09 04:36:00,
2013-05-09 00:41:00,58.1,50.2,29.93,SSE,158,0.0,0.0,75,0.00,,,0.00,WUHU216HW,2013-05-09 04:41:00,
2013-05-09 00:46:00,58.0,50.0,29.92,SSE,158,0.0,0.0,75,0.00,,,0.00,WUHU216HW,2013-05-09 04:46:00,
2013-05-09 00:51:00,58.0,50.0,29.92,SSE,158,0.0,0.0,75,0.00,,,0.00,WUHU216HW,2013-05-09 04:51:00,
2013-05-09 00:56:00,57.6,49.7,29.92,SSE,158,0.0,0.0,75,0.00,,,0.00,WUHU216HW,2013-05-09 04:56:00,
2013-05-09 01:01:00,57.4,49.9,29.92,SSE,158,0.0,0.0,76,0.00,,,0.00,WUHU216HW,2013-05-09 05:01:00,
2013-05-09 01:06:00,57.2,49.7,29.93,SSE,158,0.0,0.0,76,0.00,,,0.00,WUHU216HW,2013-05-09 05:06:00,
2013-05-09 01:11:00,57.2,49.7,29.93,SSE,158,0.0,0.0,76,0.00,,,0.00,WUHU216HW,2013-05-09 05:11:00,
2013-05-09 01:16:00,56.9,49.3,29.92,SSE,158,0.0,0.0,76,0.00,,,0.00,WUHU216HW,2013-05-09 05:16:00,
2013-05-09 01:21:00,56.7,49.1,29.92,SSE,158,0.0,0.0,76,0.00,,,0.00,WUHU216HW,2013-05-09 05:21:00,
2013-05-09 01:26:00,56.5,49.0,29.92,SSE,158,0.0,0.0,76,0.00,,,0.00,WUHU216HW,2013-05-09 05:26:00,
2013-05-09 01:31:00,56.3,49.1,29.92,West,270,0.0,0.0,77,0.00,,,0.00,WUHU216HW,2013-05-09 05:31:00,
2013-05-09 01:36:00,56.2,49.0,29.91,NW,315,0.0,0.0,77,0.00,,,0.00,WUHU216HW,2013-05-09 05:36:00,
2013-05-09 01:41:00,56.0,49.1,29.92,NW,315,0.0,0.0,78,0.00,,,0.00,WUHU216HW,2013-05-09 05:41:00,
2013-05-09 01:46:00,55.8,49.0,29.91,NW,315,0.0,0.0,78,0.00,,,0.00,WUHU216HW,2013-05-09 05:46:00,
2013-05-09 01:51:00,55.8,49.0,29.91,NW,315,0.0,0.0,78,0.00,,,0.00,WUHU216HW,2013-05-09 05:51:00,
2013-05-09 01:56:00,55.6,48.8,29.91,NW,315,0.0,0.0,78,0.00,,,0.00,WUHU216HW,2013-05-09 05:56:00,
2013-05-09 02:01:00,55.4,48.6,29.91,NW,315,0.0,0.0,78,0.00,,,0.00,WUHU216HW,2013-05-09 06:01:00,
2013-05-09 02:06:00,55.4,48.6,29.90,NW,315,0.0,0.0,78,0.00,,,0.00,WUHU216HW,2013-05-09 06:06:00,
2013-05-09 02:11:00,55.3,48.8,29.90,NW,315,0.0,0.0,79,0.00,,,0.00,WUHU216HW,2013-05-09 06:11:00,
2013-05-09 02:16:00,55.4,49.0,29.90,NNW,338,0.0,0.0,79,0.00,,,0.00,WUHU216HW,2013-05-09 06:16:00,
2013-05-09 02:21:00,55.4,49.0,29.90,NNW,338,0.0,0.0,79,0.00,,,0.00,WUHU216HW,2013-05-09 06:21:00,
2013-05-09 02:26:00,55.1,48.3,29.90,NNW,338,0.0,0.0,78,0.00,,,0.00,WUHU216HW,2013-05-09 06:26:00,
2013-05-09 02:31:00,54.9,48.2,29.90,NNW,338,0.0,0.0,78,0.00,,,0.00,WUHU216HW,2013-05-09 06:31:00,
2013-05-09 02:36:00,54.7,48.0,29.90,NNW,338,0.0,0.0,78,0.00,,,0.00,WUHU216HW,2013-05-09 06:36:00,
2013-05-09 02:41:00,54.7,48.0,29.90,NNW,338,0.0,0.0,78,0.00,,,0.00,WUHU216HW,2013-05-09 06:41:00,
2013-05-09 02:46:00,54.5,48.2,29.90,NNW,338,0.0,0.0,79,0.00,,,0.00,WUHU216HW,2013-05-09 06:46:00,
2013-05-09 02:51:00,54.4,48.0,29.90,NNW,338,0.0,0.0,79,0.00,,,0.00,WUHU216HW,2013-05-09 06:51:00,
2013-05-09 02:56:00,54.4,48.3,29.89,NNW,338,0.0,0.0,80,0.00,,,0.00,WUHU216HW,2013-05-09 06:56:00,
2013-05-09 03:01:00,54.4,48.3,29.89,NNW,338,0.0,0.0,80,0.00,,,0.00,WUHU216HW,2013-05-09 07:01:00,
2013-05-09 03:06:00,54.2,48.2,29.90,NNW,338,0.0,0.0,80,0.00,,,0.00,WUHU216HW,2013-05-09 07:06:00,
2013-05-09 03:11:00,54.0,48.1,29.89,NNW,338,0.0,0.0,80,0.00,,,0.00,WUHU216HW,2013-05-09 07:11:00,
2013-05-09 03:16:00,53.8,47.9,29.89,NNW,338,0.0,0.0,80,0.00,,,0.00,WUHU216HW,2013-05-09 07:16:00,
2013-05-09 03:21:00,53.6,47.7,29.89,NNW,338,0.0,0.0,80,0.00,,,0.00,WUHU216HW,2013-05-09 07:21:00,
2013-05-09 03:26:00,53.6,47.7,29.89,NNW,338,0.0,0.0,80,0.00,,,0.00,WUHU216HW,2013-05-09 07:26:00,
2013-05-09 03:31:00,53.5,47.5,29.89,NNW,338,0.0,0.0,80,0.00,,,0.00,WUHU216HW,2013-05-09 07:31:00,
2013-05-09 03:36:00,53.5,47.5,29.89,NNW,338,0.0,0.0,80,0.00,,,0.00,WUHU216HW,2013-05-09 07:36:00,
2013-05-09 03:41:00,53.3,47.3,29.89,NNW,338,0.0,0.0,80,0.00,,,0.00,WUHU216HW,2013-05-09 07:41:00,
2013-05-09 03:46:00,53.1,47.2,29.89,NNW,338,0.0,0.0,80,0.00,,,0.00,WUHU216HW,2013-05-09 07:46:00,
2013-05-09 03:51:00,52.9,47.0,29.88,NNW,338,0.0,0.0,80,0.00,,,0.00,WUHU216HW,2013-05-09 07:51:00,
2013-05-09 03:56:00,52.9,47.0,29.88,NNW,338,0.0,0.0,80,0.00,,,0.00,WUHU216HW,2013-05-09 07:56:00,
2013-05-09 04:01:00,52.9,47.0,29.88,NNW,338,0.0,0.0,80,0.00,,,0.00,WUHU216HW,2013-05-09 08:01:00,
2013-05-09 04:06:00,52.7,46.8,29.88,NNW,338,0.0,0.0,80,0.00,,,0.00,WUHU216HW,2013-05-09 08:06:00,
2013-05-09 04:11:00,52.7,47.1,29.88,NNW,338,0.0,0.0,81,0.00,,,0.00,WUHU216HW,2013-05-09 08:11:00,
2013-05-09 04:16:00,52.7,47.1,29.88,NNW,338,0.0,0.0,81,0.00,,,0.00,WUHU216HW,2013-05-09 08:16:00,
2013-05-09 04:21:00,52.6,46.9,29.88,NNW,338,0.0,0.0,81,0.00,,,0.00,WUHU216HW,2013-05-09 08:21:00,
2013-05-09 04:26:00,52.4,46.7,29.88,NNW,338,0.0,0.0,81,0.00,,,0.00,WUHU216HW,2013-05-09 08:26:00,
2013-05-09 04:31:00,52.2,46.5,29.88,NNW,338,0.0,0.0,81,0.00,,,0.00,WUHU216HW,2013-05-09 08:31:00,
2013-05-09 04:36:00,52.2,46.5,29.88,NNW,338,0.0,0.0,81,0.00,,,0.00,WUHU216HW,2013-05-09 08:36:00,
2013-05-09 04:41:00,52.2,46.5,29.88,NNW,338,0.0,0.0,81,0.00,,,0.00,WUHU216HW,2013-05-09 08:41:00,
2013-05-09 04:46:00,52.2,46.9,29.88,NNW,338,0.0,0.0,82,0.00,,,0.00,WUHU216HW,2013-05-09 08:46:00,
2013-05-09 04:51:00,51.8,46.5,29.88,NNW,338,0.0,0.0,82,0.00,,,0.00,WUHU216HW,2013-05-09 08:51:00,
2013-05-09 04:56:00,51.7,46.4,29.88,NNW,338,0.0,0.0,82,0.00,,,0.00,WUHU216HW,2013-05-09 08:56:00,
2013-05-09 05:01:00,51.7,46.4,29.88,NNW,338,0.0,0.0,82,0.00,,,0.00,WUHU216HW,2013-05-09 09:01:00,
2013-05-09 05:06:00,51.5,46.2,29.88,NNW,338,0.0,0.0,82,0.00,,,0.00,WUHU216HW,2013-05-09 09:06:00,
2013-05-09 05:11:00,51.3,46.0,29.88,NNW,338,0.0,0.0,82,0.00,,,0.00,WUHU216HW,2013-05-09 09:11:00,
2013-05-09 05:16:00,51.1,45.8,29.88,NNW,338,0.0,0.0,82,0.00,,,0.00,WUHU216HW,2013-05-09 09:16:00,
2013-05-09 05:21:00,51.1,45.8,29.88,NNW,338,0.0,0.0,82,0.00,,,0.00,WUHU216HW,2013-05-09 09:21:00,
2013-05-09 05:26:00,50.9,45.6,29.88,NNW,338,0.0,0.0,82,0.00,,,0.00,WUHU216HW,2013-05-09 09:26:00,
2013-05-09 05:31:00,50.8,45.5,29.88,NNW,338,0.0,0.0,82,0.00,,,0.00,WUHU216HW,2013-05-09 09:31:00,
2013-05-09 05:36:00,50.8,45.5,29.88,NNW,338,0.0,0.0,82,0.00,,,0.00,WUHU216HW,2013-05-09 09:36:00,
2013-05-09 05:41:00,50.6,45.3,29.88,NNW,338,0.0,0.0,82,0.00,,,0.00,WUHU216HW,2013-05-09 09:41:00,
2013-05-09 05:46:00,50.6,45.3,29.89,NNW,338,0.0,0.0,82,0.00,,,0.00,WUHU216HW,2013-05-09 09:46:00,
2013-05-09 05:51:00,50.4,45.1,29.89,NNW,338,0.0,0.0,82,0.00,,,0.00,WUHU216HW,2013-05-09 09:51:00,
2013-05-09 05:56:00,50.4,45.1,29.89,NNW,338,0.0,0.0,82,0.00,,,0.00,WUHU216HW,2013-05-09 09:56:00,
2013-05-09 06:01:00,50.4,45.1,29.89,NNW,338,0.0,0.0,82,0.00,,,0.00,WUHU216HW,2013-05-09 10:01:00,
2013-05-09 06:06:00,50.2,44.9,29.89,NNW,338,0.0,0.0,82,0.00,,,0.00,WUHU216HW,2013-05-09 10:06:00,
2013-05-09 06:11:00,50.0,44.7,29.89,NNW,338,0.0,0.0,82,0.00,,,0.00,WUHU216HW,2013-05-09 10:11:00,
2013-05-09 06:16:00,50.0,44.7,29.89,NNW,338,0.0,0.0,82,0.00,,,0.00,WUHU216HW,2013-05-09 10:16:00,
2013-05-09 06:22:00,50.0,44.7,29.90,NNW,338,0.0,0.0,82,0.00,,,0.00,WUHU216HW,2013-05-09 10:22:00,
2013-05-09 06:27:00,50.0,45.0,29.90,NNW,338,0.0,0.0,83,0.00,,,0.00,WUHU216HW,2013-05-09 10:27:00,
2013-05-09 06:32:00,50.0,45.0,29.90,NNW,338,0.0,0.0,83,0.00,,,0.00,WUHU216HW,2013-05-09 10:32:00,
2013-05-09 06:37:00,50.0,45.0,29.90,NNW,338,0.0,0.0,83,0.00,,,0.00,WUHU216HW,2013-05-09 10:37:00,
2013-05-09 06:42:00,50.0,45.0,29.91,NNW,338,0.0,0.0,83,0.00,,,0.00,WUHU216HW,2013-05-09 10:42:00,
2013-05-09 06:47:00,50.0,45.0,29.91,NNW,338,0.0,0.0,83,0.00,,,0.00,WUHU216HW,2013-05-09 10:47:00,
2013-05-09 06:52:00,50.2,45.6,29.91,NNW,338,0.0,0.0,84,0.00,,,0.00,WUHU216HW,2013-05-09 10:52:00,
2013-05-09 06:57:00,50.2,45.2,29.91,NNW,338,0.0,0.0,83,0.00,,,0.00,WUHU216HW,2013-05-09 10:57:00,
2013-05-09 07:02:00,50.4,45.4,29.91,NNW,338,0.0,0.0,83,0.00,,,0.00,WUHU216HW,2013-05-09 11:02:00,
2013-05-09 07:07:00,50.4,45.7,29.91,NNW,338,0.0,0.0,84,0.00,,,0.00,WUHU216HW,2013-05-09 11:07:00,
2013-05-09 07:12:00,50.6,45.9,29.92,NNW,338,0.0,0.0,84,0.00,,,0.00,WUHU216HW,2013-05-09 11:12:00,
2013-05-09 07:17:00,50.8,46.1,29.92,NNW,338,0.0,0.0,84,0.00,,,0.00,WUHU216HW,2013-05-09 11:17:00,
2013-05-09 07:22:00,50.9,46.3,29.92,NNW,338,0.0,0.0,84,0.00,,,0.00,WUHU216HW,2013-05-09 11:22:00,
2013-05-09 07:27:00,51.3,46.6,29.92,NNW,338,0.0,0.0,84,0.00,,,0.00,WUHU216HW,2013-05-09 11:27:00,
2013-05-09 07:32:00,51.7,47.0,29.92,NNW,338,0.0,0.0,84,0.00,,,0.00,WUHU216HW,2013-05-09 11:32:00,
2013-05-09 07:37:00,52.2,47.8,29.92,NNW,338,0.0,0.0,85,0.00,,,0.00,WUHU216HW,2013-05-09 11:37:00,
2013-05-09 07:42:00,52.9,48.5,29.92,NNW,338,0.0,0.0,85,0.00,,,0.00,WUHU216HW,2013-05-09 11:42:00,
2013-05-09 07:47:00,53.5,49.1,29.92,NNW,338,0.0,0.0,85,0.00,,,0.00,WUHU216HW,2013-05-09 11:47:00,
2013-05-09 07:52:00,54.7,50.2,29.92,NNW,338,0.0,0.0,85,0.00,,,0.00,WUHU216HW,2013-05-09 11:52:00,
2013-05-09 07:57:00,55.6,50.8,29.92,NNW,338,0.0,0.0,84,0.00,,,0.00,WUHU216HW,2013-05-09 11:57:00,
2013-05-09 08:02:00,56.2,51.0,29.92,NNW,338,0.0,0.0,83,0.00,,,0.00,WUHU216HW,2013-05-09 12:02:00,
2013-05-09 08:07:00,56.7,51.8,29.92,NNW,338,0.0,0.0,84,0.00,,,0.00,WUHU216HW,2013-05-09 12:07:00,
2013-05-09 08:12:00,57.2,52.4,29.92,NNW,338,0.0,0.0,84,0.00,,,0.00,WUHU216HW,2013-05-09 12:12:00,
2013-05-09 08:17:00,58.0,52.8,29.92,NNW,338,0.0,0.0,83,0.00,,,0.00,WUHU216HW,2013-05-09 12:17:00,
2013-05-09 08:22:00,58.7,53.6,29.92,NNW,338,0.0,0.0,83,0.00,,,0.00,WUHU216HW,2013-05-09 12:22:00,
2013-05-09 08:27:00,59.6,54.1,29.92,NNW,338,0.0,0.0,82,0.00,,,0.00,WUHU216HW,2013-05-09 12:27:00,
2013-05-09 08:32:00,60.5,54.7,29.92,NNW,338,0.0,0.0,81,0.00,,,0.00,WUHU216HW,2013-05-09 12:32:00,
2013-05-09 08:37:00,61.6,55.7,29.92,NW,315,0.0,0.0,81,0.00,,,0.00,WUHU216HW,2013-05-09 12:37:00,
2013-05-09 08:42:00,62.6,55.6,29.93,NW,315,0.0,0.0,78,0.00,,,0.00,WUHU216HW,2013-05-09 12:42:00,
2013-05-09 08:47:00,63.4,55.6,29.92,NW,315,0.0,0.0,76,0.00,,,0.00,WUHU216HW,2013-05-09 12:47:00,
2013-05-09 08:52:00,63.7,56.0,29.92,NW,315,0.0,0.0,76,0.00,,,0.00,WUHU216HW,2013-05-09 12:52:00,
2013-05-09 08:57:00,64.1,56.3,29.92,NW,315,0.0,0.0,76,0.00,,,0.00,WUHU216HW,2013-05-09 12:57:00,
2013-05-09 09:02:00,64.4,56.3,29.92,NNW,338,0.0,0.0,75,0.00,,,0.00,WUHU216HW,2013-05-09 13:02:00,
2013-05-09 09:07:00,64.8,56.7,29.92,NNW,338,0.0,0.0,75,0.00,,,0.00,WUHU216HW,2013-05-09 13:07:00,
2013-05-09 09:12:00,65.2,56.7,29.92,NW,315,0.0,0.0,74,0.00,,,0.00,WUHU216HW,2013-05-09 13:12:00,
2013-05-09 09:17:00,65.7,56.8,29.92,East,90,0.0,1.6,73,0.00,,,0.00,WUHU216HW,2013-05-09 13:17:00,
2013-05-09 09:22:00,66.1,56.8,29.92,SE,135,0.0,1.6,72,0.00,,,0.00,WUHU216HW,2013-05-09 13:22:00,
2013-05-09 09:27:00,66.4,57.1,29.92,NNE,23,0.7,1.1,72,0.00,,,0.00,WUHU216HW,2013-05-09 13:27:00,
2013-05-09 09:32:00,66.8,56.7,29.92,North,0,0.0,1.1,70,0.00,,,0.00,WUHU216HW,2013-05-09 13:32:00,
2013-05-09 09:37:00,67.3,55.1,29.92,NNW,338,0.0,0.9,65,0.00,,,0.00,WUHU216HW,2013-05-09 13:37:00,
2013-05-09 09:42:00,67.7,55.9,29.92,SW,225,1.8,1.8,66,0.00,,,0.00,WUHU216HW,2013-05-09 13:42:00,
2013-05-09 09:47:00,67.7,56.4,29.92,SSW,203,0.4,1.8,67,0.00,,,0.00,WUHU216HW,2013-05-09 13:47:00,
2013-05-09 09:52:00,67.7,56.7,29.92,SW,225,0.0,1.8,68,0.00,,,0.00,WUHU216HW,2013-05-09 13:52:00,
2013-05-09 09:57:00,68.0,55.8,29.92,NNE,23,0.2,1.1,65,0.00,,,0.00,WUHU216HW,2013-05-09 13:57:00,
2013-05-09 10:02:00,68.6,56.4,29.92,SSE,158,0.4,1.1,65,0.00,,,0.00,WUHU216HW,2013-05-09 14:02:00,
2013-05-09 10:07:00,68.8,56.5,29.92,ESE,113,1.3,1.3,65,0.00,,,0.00,WUHU216HW,2013-05-09 14:07:00,
2013-05-09 10:12:00,68.9,56.7,29.92,SW,225,2.2,2.2,65,0.00,,,0.00,WUHU216HW,2013-05-09 14:12:00,
2013-05-09 10:17:00,69.1,56.4,29.92,ENE,68,0.4,2.5,64,0.00,,,0.00,WUHU216HW,2013-05-09 14:17:00,
2013-05-09 10:22:00,69.5,56.4,29.92,SE,135,1.3,2.5,63,0.00,,,0.00,WUHU216HW,2013-05-09 14:22:00,
2013-05-09 10:27:00,69.8,56.7,29.92,South,180,0.2,1.8,63,0.00,,,0.00,WUHU216HW,2013-05-09 14:27:00,
2013-05-09 10:32:00,70.2,56.6,29.92,SW,225,1.8,1.8,62,0.00,,,0.00,WUHU216HW,2013-05-09 14:32:00,
2013-05-09 10:37:00,70.6,56.5,29.91,NNE,23,2.2,2.2,61,0.00,,,0.00,WUHU216HW,2013-05-09 14:37:00,
2013-05-09 10:42:00,70.7,54.7,29.92,NNW,338,1.6,2.2,57,0.00,,,0.00,WUHU216HW,2013-05-09 14:42:00,
2013-05-09 10:47:00,71.3,55.7,29.92,South,180,1.6,2.0,58,0.00,,,0.00,WUHU216HW,2013-05-09 14:47:00,
2013-05-09 10:52:00,71.6,57.1,29.92,SSE,158,0.2,2.7,60,0.00,,,0.00,WUHU216HW,2013-05-09 14:52:00,
2013-05-09 10:57:00,71.8,57.3,29.92,SE,135,1.3,2.7,60,0.00,,,0.00,WUHU216HW,2013-05-09 14:57:00,
2013-05-09 11:02:00,72.0,57.4,29.92,SSW,203,1.6,2.5,60,0.00,,,0.00,WUHU216HW,2013-05-09 15:02:00,
2013-05-09 11:07:00,72.0,56.3,29.92,SSE,158,0.0,2.5,58,0.00,,,0.00,WUHU216HW,2013-05-09 15:07:00,
2013-05-09 11:12:00,72.2,57.1,29.92,NNE,23,0.7,1.1,59,0.00,,,0.00,WUHU216HW,2013-05-09 15:12:00,
2013-05-09 11:17:00,72.5,57.9,29.92,ESE,113,0.0,2.9,60,0.00,,,0.00,WUHU216HW,2013-05-09 15:17:00,
2013-05-09 11:22:00,72.9,56.7,29.92,SSW,203,0.2,2.9,57,0.00,,,0.00,WUHU216HW,2013-05-09 15:22:00,
2013-05-09 11:27:00,73.1,57.9,29.92,SE,135,1.1,1.6,59,0.00,,,0.00,WUHU216HW,2013-05-09 15:27:00,
2013-05-09 11:32:00,73.3,57.0,29.91,NE,45,1.1,2.5,57,0.00,,,0.00,WUHU216HW,2013-05-09 15:32:00,
2013-05-09 11:37:00,73.3,55.5,29.92,South,180,0.4,2.5,54,0.00,,,0.00,WUHU216HW,2013-05-09 15:37:00,
2013-05-09 11:42:00,73.4,56.7,29.92,WSW,248,1.8,2.2,56,0.00,,,0.00,WUHU216HW,2013-05-09 15:42:00,
2013-05-09 11:47:00,73.6,55.8,29.92,ESE,113,1.6,2.2,54,0.00,,,0.00,WUHU216HW,2013-05-09 15:47:00,
2013-05-09 11:52:00,73.8,54.6,29.92,NW,315,0.2,2.0,51,0.00,,,0.00,WUHU216HW,2013-05-09 15:52:00,
2013-05-09 11:57:00,74.0,56.2,29.92,West,270,1.3,1.8,54,0.00,,,0.00,WUHU216HW,2013-05-09 15:57:00,
2013-05-09 12:02:00,74.0,55.2,29.92,ENE,68,0.9,1.8,52,0.00,,,0.00,WUHU216HW,2013-05-09 16:02:00,
2013-05-09 12:07:00,74.2,54.4,29.92,NNW,338,0.0,3.1,50,0.00,,,0.00,WUHU216HW,2013-05-09 16:07:00,
2013-05-09 12:12:00,74.5,55.7,29.92,SE,135,0.4,3.1,52,0.00,,,0.00,WUHU216HW,2013-05-09 16:12:00,
2013-05-09 12:17:00,74.7,55.5,29.92,SW,225,1.8,2.5,51,0.00,,,0.00,WUHU216HW,2013-05-09 16:17:00,
2013-05-09 12:22:00,74.9,53.3,29.92,SW,225,3.8,4.5,47,0.00,,,0.00,WUHU216HW,2013-05-09 16:22:00,
2013-05-09 12:27:00,75.1,55.3,29.92,SW,225,2.2,4.5,50,0.00,,,0.00,WUHU216HW,2013-05-09 16:27:00,
2013-05-09 12:32:00,75.1,53.5,29.92,SSW,203,0.4,2.2,47,0.00,,,0.00,WUHU216HW,2013-05-09 16:32:00,
2013-05-09 12:37:00,75.1,51.0,29.92,NW,315,0.7,1.8,43,0.00,,,0.00,WUHU216HW,2013-05-09 16:37:00,
2013-05-09 12:42:00,75.2,50.0,29.92,West,270,0.7,1.3,41,0.00,,,0.00,WUHU216HW,2013-05-09 16:42:00,
2013-05-09 12:47:00,74.9,50.9,29.92,WSW,248,0.9,1.8,43,0.00,,,0.00,WUHU216HW,2013-05-09 16:47:00,
2013-05-09 12:52:00,74.9,49.0,29.92,NW,315,0.4,2.9,40,0.00,,,0.00,WUHU216HW,2013-05-09 16:52:00,
2013-05-09 12:57:00,75.6,51.5,29.92,WSW,248,2.9,2.9,43,0.00,,,0.00,WUHU216HW,2013-05-09 16:57:00,
2013-05-09 13:02:00,76.1,48.6,29.92,NNW,338,3.6,3.6,38,0.00,,,0.00,WUHU216HW,2013-05-09 17:02:00,
2013-05-09 13:07:00,76.1,50.1,29.92,NE,45,1.1,3.6,40,0.00,,,0.00,WUHU216HW,2013-05-09 17:07:00,
2013-05-09 13:12:00,76.1,50.1,29.91,SE,135,0.7,3.4,40,0.00,,,0.00,WUHU216HW,2013-05-09 17:12:00,
2013-05-09 13:17:00,76.3,52.7,29.91,SE,135,0.0,2.7,44,0.00,,,0.00,WUHU216HW,2013-05-09 17:17:00,
2013-05-09 13:22:00,76.3,51.5,29.91,ENE,68,1.1,1.6,42,0.00,,,0.00,WUHU216HW,2013-05-09 17:22:00,
2013-05-09 13:27:00,76.5,51.0,29.91,ESE,113,0.4,1.6,41,0.00,,,0.00,WUHU216HW,2013-05-09 17:27:00,
2013-05-09 13:32:00,76.5,51.7,29.91,WNW,293,0.2,1.1,42,0.00,,,0.00,WUHU216HW,2013-05-09 17:32:00,
2013-05-09 13:37:00,76.3,52.7,29.91,SW,225,2.9,2.9,44,0.00,,,0.00,WUHU216HW,2013-05-09 17:37:00,
2013-05-09 13:42:00,76.3,54.0,29.91,ESE,113,1.1,2.9,46,0.00,,,0.00,WUHU216HW,2013-05-09 17:42:00,
2013-05-09 13:47:00,76.5,52.9,29.91,East,90,1.1,2.0,44,0.00,,,0.00,WUHU216HW,2013-05-09 17:47:00,
2013-05-09 13:52:00,76.7,53.1,29.91,ENE,68,1.6,1.8,44,0.00,,,0.00,WUHU216HW,2013-05-09 17:52:00,
2013-05-09 13:57:00,76.9,52.0,29.91,NW,315,0.0,1.8,42,0.00,,,0.00,WUHU216HW,2013-05-09 17:57:00,
2013-05-09 14:02:00,77.0,52.7,29.91,SSE,158,0.7,1.8,43,0.00,,,0.00,WUHU216HW,2013-05-09 18:02:00,
2013-05-09 14:07:00,77.6,54.5,29.91,SSW,203,0.2,1.3,45,0.00,,,0.00,WUHU216HW,2013-05-09 18:07:00,
2013-05-09 14:12:00,78.1,54.4,29.90,NW,315,2.5,3.8,44,0.00,,,0.00,WUHU216HW,2013-05-09 18:12:00,
2013-05-09 14:17:00,78.7,54.8,29.90,SW,225,5.4,5.4,44,0.00,,,0.00,WUHU216HW,2013-05-09 18:17:00,
2013-05-09 14:22:00,78.8,55.6,29.90,SSE,158,2.7,5.4,45,0.00,,,0.00,WUHU216HW,2013-05-09 18:22:00,
2013-05-09 14:27:00,79.0,55.8,29.90,South,180,1.6,4.0,45,0.00,,,0.00,WUHU216HW,2013-05-09 18:27:00,
2013-05-09 14:32:00,79.2,56.0,29.90,SSE,158,0.4,3.8,45,0.00,,,0.00,WUHU216HW,2013-05-09 18:32:00,
2013-05-09 14:37:00,79.2,54.1,29.90,SSW,203,4.7,4.7,42,0.00,,,0.00,WUHU216HW,2013-05-09 18:37:00,
2013-05-09 14:42:00,78.8,53.8,29.90,NNE,23,0.2,4.7,42,0.00,,,0.00,WUHU216HW,2013-05-09 18:42:00,
2013-05-09 14:47:00,79.0,53.4,29.90,SW,225,1.6,3.1,41,0.00,,,0.00,WUHU216HW,2013-05-09 18:47:00,
2013-05-09 14:52:00,79.2,53.5,29.89,NW,315,0.0,1.6,41,0.00,,,0.00,WUHU216HW,2013-05-09 18:52:00,
2013-05-09 14:57:00,79.6,55.1,29.89,SSW,203,2.2,2.2,43,0.00,,,0.00,WUHU216HW,2013-05-09 18:57:00,
2013-05-09 15:02:00,79.7,55.8,29.89,SSW,203,0.4,2.5,44,0.00,,,0.00,WUHU216HW,2013-05-09 19:02:00,
2013-05-09 15:07:00,79.6,55.1,29.89,South,180,1.3,2.5,43,0.00,,,0.00,WUHU216HW,2013-05-09 19:07:00,
2013-05-09 15:12:00,79.6,55.6,29.89,SE,135,0.9,2.5,44,0.00,,,0.00,WUHU216HW,2013-05-09 19:12:00,
2013-05-09 15:17:00,79.4,54.3,29.89,North,0,1.1,2.5,42,0.00,,,0.00,WUHU216HW,2013-05-09 19:17:00,
2013-05-09 15:22:00,79.4,54.9,29.89,SW,225,0.4,1.8,43,0.00,,,0.00,WUHU216HW,2013-05-09 19:22:00,
2013-05-09 15:27:00,79.2,55.4,29.89,SW,225,0.2,1.8,44,0.00,,,0.00,WUHU216HW,2013-05-09 19:27:00,
2013-05-09 15:32:00,78.8,53.8,29.89,SW,225,1.3,2.9,42,0.00,,,0.00,WUHU216HW,2013-05-09 19:32:00,
2013-05-09 15:37:00,78.5,50.7,29.88,NW,315,1.8,2.9,38,0.00,,,0.00,WUHU216HW,2013-05-09 19:37:00,
2013-05-09 15:42:00,78.1,51.9,29.89,WNW,293,0.2,1.8,40,0.00,,,0.00,WUHU216HW,2013-05-09 19:42:00,
2013-05-09 15:47:00,78.1,52.6,29.88,WNW,293,0.0,1.3,41,0.00,,,0.00,WUHU216HW,2013-05-09 19:47:00,
2013-05-09 15:52:00,78.3,53.3,29.89,West,270,1.1,1.1,42,0.00,,,0.00,WUHU216HW,2013-05-09 19:52:00,
2013-05-09 15:57:00,78.5,54.1,29.88,North,0,0.0,1.1,43,0.00,,,0.00,WUHU216HW,2013-05-09 19:57:00,
2013-05-09 16:02:00,78.8,54.4,29.88,ESE,113,0.0,1.3,43,0.00,,,0.00,WUHU216HW,2013-05-09 20:02:00,
2013-05-09 16:07:00,79.0,53.9,29.88,ESE,113,0.9,1.3,42,0.00,,,0.00,WUHU216HW,2013-05-09 20:07:00,
2013-05-09 16:12:00,78.8,53.8,29.88,East,90,0.0,0.9,42,0.00,,,0.00,WUHU216HW,2013-05-09 20:12:00,
2013-05-09 16:17:00,78.8,54.4,29.88,East,90,0.4,0.4,43,0.00,,,0.00,WUHU216HW,2013-05-09 20:17:00,
2013-05-09 16:22:00,78.5,52.8,29.88,North,0,0.4,2.0,41,0.00,,,0.00,WUHU216HW,2013-05-09 20:22:00,
2013-05-09 16:27:00,78.1,52.6,29.88,North,0,0.0,2.0,41,0.00,,,0.00,WUHU216HW,2013-05-09 20:27:00,
2013-05-09 16:32:00,77.6,52.7,29.88,SSE,158,1.8,2.2,42,0.00,,,0.00,WUHU216HW,2013-05-09 20:32:00,
2013-05-09 16:37:00,77.4,52.5,29.88,SE,135,0.9,3.4,42,0.00,,,0.00,WUHU216HW,2013-05-09 20:37:00,
2013-05-09 16:42:00,77.4,51.8,29.87,SE,135,1.1,3.4,41,0.00,,,0.00,WUHU216HW,2013-05-09 20:42:00,
2013-05-09 16:47:00,77.8,54.0,29.87,NNE,23,1.6,1.8,44,0.00,,,0.00,WUHU216HW,2013-05-09 20:47:00,
2013-05-09 16:52:00,78.1,53.1,29.87,North,0,3.4,3.4,42,0.00,,,0.00,WUHU216HW,2013-05-09 20:52:00,
2013-05-09 16:57:00,78.3,53.3,29.87,NNE,23,2.5,3.4,42,0.00,,,0.00,WUHU216HW,2013-05-09 20:57:00,
2013-05-09 17:02:00,78.1,53.1,29.87,SSE,158,1.8,2.7,42,0.00,,,0.00,WUHU216HW,2013-05-09 21:02:00,
2013-05-09 17:06:00,78.1,53.7,29.87,SE,135,0.9,2.7,43,0.00,,,0.00,WUHU216HW,2013-05-09 21:06:00,
2013-05-09 17:11:00,78.1,53.7,29.87,NNE,23,0.9,2.5,43,0.00,,,0.00,WUHU216HW,2013-05-09 21:11:00,
2013-05-09 17:16:00,78.1,53.1,29.86,NW,315,0.4,2.5,42,0.00,,,0.00,WUHU216HW,2013-05-09 21:16:00,
2013-05-09 17:21:00,78.3,53.9,29.86,ESE,113,1.8,1.8,43,0.00,,,0.00,WUHU216HW,2013-05-09 21:21:00,
2013-05-09 17:26:00,78.5,54.1,29.86,North,0,2.5,2.5,43,0.00,,,0.00,WUHU216HW,2013-05-09 21:26:00,
2013-05-09 17:31:00,78.1,52.6,29.86,South,180,3.4,3.4,41,0.00,,,0.00,WUHU216HW,2013-05-09 21:31:00,
2013-05-09 17:36:00,77.9,54.2,29.86,ESE,113,1.8,3.6,44,0.00,,,0.00,WUHU216HW,2013-05-09 21:36:00,
2013-05-09 17:41:00,78.7,55.4,29.86,SE,135,4.3,4.3,45,0.00,,,0.00,WUHU216HW,2013-05-09 21:41:00,
2013-05-09 17:46:00,78.8,55.0,29.86,NNE,23,3.1,4.3,44,0.00,,,0.00,WUHU216HW,2013-05-09 21:46:00,
2013-05-09 17:51:00,78.3,53.3,29.86,SE,135,1.6,3.6,42,0.00,,,0.00,WUHU216HW,2013-05-09 21:51:00,
2013-05-09 17:56:00,78.3,53.9,29.86,NNE,23,2.2,2.2,43,0.00,,,0.00,WUHU216HW,2013-05-09 21:56:00,
2013-05-09 18:01:00,78.7,54.3,29.86,SE,135,3.4,3.4,43,0.00,,,0.00,WUHU216HW,2013-05-09 22:01:00,
2013-05-09 18:06:00,81.0,55.7,29.86,NNE,23,1.8,3.6,42,0.00,,,0.00,WUHU216HW,2013-05-09 22:06:00,
2013-05-09 18:11:00,81.0,55.1,29.86,SSE,158,0.4,3.6,41,0.00,,,0.00,WUHU216HW,2013-05-09 22:11:00,
2013-05-09 18:16:00,79.6,53.2,29.86,SE,135,1.3,2.9,40,0.00,,,0.00,WUHU216HW,2013-05-09 22:16:00,
2013-05-09 18:21:00,78.7,53.7,29.86,South,180,2.7,3.4,42,0.00,,,0.00,WUHU216HW,2013-05-09 22:21:00,
2013-05-09 18:26:00,77.4,52.5,29.85,SE,135,0.4,3.4,42,0.00,,,0.00,WUHU216HW,2013-05-09 22:26:00,
2013-05-09 18:31:00,76.7,52.5,29.85,ENE,68,0.0,2.2,43,0.00,,,0.00,WUHU216HW,2013-05-09 22:31:00,
2013-05-09 18:36:00,76.1,53.2,29.85,SE,135,0.4,1.8,45,0.00,,,0.00,WUHU216HW,2013-05-09 22:36:00,
2013-05-09 18:41:00,75.6,53.3,29.85,ESE,113,0.9,1.8,46,0.00,,,0.00,WUHU216HW,2013-05-09 22:41:00,
2013-05-09 18:46:00,75.2,53.0,29.86,SE,135,0.4,2.0,46,0.00,,,0.00,WUHU216HW,2013-05-09 22:46:00,
2013-05-09 18:51:00,75.1,52.8,29.86,SSE,158,2.0,3.8,46,0.00,,,0.00,WUHU216HW,2013-05-09 22:51:00,
2013-05-09 18:56:00,74.7,52.5,29.86,SE,135,1.1,3.8,46,0.00,,,0.00,WUHU216HW,2013-05-09 22:56:00,
2013-05-09 19:01:00,74.5,52.9,29.86,SE,135,0.7,3.4,47,0.00,,,0.00,WUHU216HW,2013-05-09 23:01:00,
2013-05-09 19:06:00,74.3,52.8,29.86,SSE,158,1.8,1.8,47,0.00,,,0.00,WUHU216HW,2013-05-09 23:06:00,
2013-05-09 19:11:00,74.2,53.2,29.86,SE,135,0.7,1.8,48,0.00,,,0.00,WUHU216HW,2013-05-09 23:11:00,
2013-05-09 19:16:00,74.0,53.0,29.86,SSE,158,3.1,3.1,48,0.00,,,0.00,WUHU216HW,2013-05-09 23:16:00,
2013-05-09 19:21:00,73.8,52.8,29.85,SSE,158,2.0,3.1,48,0.00,,,0.00,WUHU216HW,2013-05-09 23:21:00,
2013-05-09 19:26:00,73.8,52.8,29.86,SSE,158,1.1,2.0,48,0.00,,,0.00,WUHU216HW,2013-05-09 23:26:00,
2013-05-09 19:31:00,73.8,52.8,29.86,SSE,158,2.0,2.5,48,0.00,,,0.00,WUHU216HW,2013-05-09 23:31:00,
2013-05-09 19:36:00,73.6,52.7,29.86,SSE,158,2.7,2.7,48,0.00,,,0.00,WUHU216HW,2013-05-09 23:36:00,
2013-05-09 19:41:00,73.6,52.7,29.86,SE,135,2.5,4.0,48,0.00,,,0.00,WUHU216HW,2013-05-09 23:41:00,
2013-05-09 19:46:00,73.4,52.5,29.86,SE,135,2.0,4.0,48,0.00,,,0.00,WUHU216HW,2013-05-09 23:46:00,
2013-05-09 19:51:00,73.3,52.3,29.86,SSE,158,0.9,3.1,48,0.00,,,0.00,WUHU216HW,2013-05-09 23:51:00,
2013-05-09 19:56:00,73.1,52.1,29.86,SSE,158,1.1,2.9,48,0.00,,,0.00,WUHU216HW,2013-05-09 23:56:00,
2013-05-09 20:01:00,72.9,51.9,29.86,SSE,158,1.6,1.8,48,0.00,,,0.00,WUHU216HW,2013-05-10 00:01:00,
2013-05-09 20:06:00,72.7,52.4,29.86,SSE,158,0.0,1.8,49,0.00,,,0.00,WUHU216HW,2013-05-10 00:06:00,
2013-05-09 20:11:00,72.4,52.1,29.86,SSE,158,0.0,0.9,49,0.00,,,0.00,WUHU216HW,2013-05-10 00:11:00,
2013-05-09 20:16:00,72.2,51.9,29.86,SSE,158,0.0,0.0,49,0.00,,,0.00,WUHU216HW,2013-05-10 00:16:00,
2013-05-09 20:21:00,72.0,52.4,29.86,SSE,158,0.0,0.0,50,0.00,,,0.00,WUHU216HW,2013-05-10 00:21:00,
2013-05-09 20:26:00,71.6,52.0,29.86,SSE,158,0.0,0.0,50,0.00,,,0.00,WUHU216HW,2013-05-10 00:26:00,
2013-05-09 20:31:00,71.5,51.8,29.86,SSE,158,0.0,0.0,50,0.00,,,0.00,WUHU216HW,2013-05-10 00:31:00,
2013-05-09 20:36:00,71.1,52.0,29.86,SSE,158,0.0,0.0,51,0.00,,,0.00,WUHU216HW,2013-05-10 00:36:00,
2013-05-09 20:41:00,70.7,52.2,29.86,SSE,158,0.0,0.0,52,0.00,,,0.00,WUHU216HW,2013-05-10 00:41:00,
2013-05-09 20:46:00,70.2,51.8,29.86,SSE,158,0.0,0.0,52,0.00,,,0.00,WUHU216HW,2013-05-10 00:46:00,
2013-05-09 20:51:00,69.8,51.0,29.86,SSE,158,0.0,0.0,51,0.00,,,0.00,WUHU216HW,2013-05-10 00:51:00,
2013-05-09 20:56:00,69.5,51.1,29.86,SSE,158,0.0,0.0,52,0.00,,,0.00,WUHU216HW,2013-05-10 00:56:00,
2013-05-09 21:01:00,69.1,51.2,29.86,SSE,158,0.0,0.0,53,0.00,,,0.00,WUHU216HW,2013-05-10 01:01:00,
2013-05-09 21:06:00,68.9,51.1,29.87,SSE,158,0.0,0.0,53,0.00,,,0.00,WUHU216HW,2013-05-10 01:06:00,
2013-05-09 21:11:00,68.6,51.2,29.87,SSE,158,0.0,0.0,54,0.00,,,0.00,WUHU216HW,2013-05-10 01:11:00,
2013-05-09 21:16:00,68.4,51.0,29.87,SSE,158,0.0,0.0,54,0.00,,,0.00,WUHU216HW,2013-05-10 01:16:00,
2013-05-09 21:21:00,68.0,50.8,29.87,SSE,158,0.0,0.0,54,0.00,,,0.00,WUHU216HW,2013-05-10 01:21:00,
2013-05-09 21:26:00,67.9,51.0,29.87,SSE,158,0.0,0.0,55,0.00,,,0.00,WUHU216HW,2013-05-10 01:26:00,
2013-05-09 21:31:00,67.7,50.9,29.87,SSE,158,0.0,0.0,55,0.00,,,0.00,WUHU216HW,2013-05-10 01:31:00,
2013-05-09 21:36:00,67.5,50.8,29.87,SSE,158,0.0,0.0,55,0.00,,,0.00,WUHU216HW,2013-05-10 01:36:00,
2013-05-09 21:41:00,67.3,51.0,29.87,SSE,158,0.0,0.0,56,0.00,,,0.00,WUHU216HW,2013-05-10 01:41:00,
2013-05-09 21:46:00,67.1,50.9,29.87,SSE,158,0.0,0.4,56,0.00,,,0.00,WUHU216HW,2013-05-10 01:46:00,
2013-05-09 21:51:00,66.8,51.0,29.87,SSE,158,0.0,0.4,57,0.00,,,0.00,WUHU216HW,2013-05-10 01:51:00,
2013-05-09 21:56:00,66.6,50.9,29.87,SSE,158,0.0,0.0,57,0.00,,,0.00,WUHU216HW,2013-05-10 01:56:00,
2013-05-09 22:01:00,66.4,50.8,29.87,SSE,158,0.0,0.0,57,0.00,,,0.00,WUHU216HW,2013-05-10 02:01:00,
2013-05-09 22:06:00,66.1,50.4,29.87,SSE,158,0.0,0.0,57,0.00,,,0.00,WUHU216HW,2013-05-10 02:06:00,
2013-05-09 22:11:00,65.9,49.7,29.87,SSE,158,0.0,0.0,56,0.00,,,0.00,WUHU216HW,2013-05-10 02:11:00,
2013-05-09 22:16:00,65.7,49.5,29.87,SSE,158,0.0,0.0,56,0.00,,,0.00,WUHU216HW,2013-05-10 02:16:00,
2013-05-09 22:21:00,65.5,49.9,29.87,SSE,158,0.0,0.0,57,0.00,,,0.00,WUHU216HW,2013-05-10 02:21:00,
2013-05-09 22:26:00,65.3,49.1,29.87,SSE,158,0.0,0.0,56,0.00,,,0.00,WUHU216HW,2013-05-10 02:26:00,
2013-05-09 22:31:00,65.3,50.1,29.87,SSE,158,0.0,0.0,58,0.00,,,0.00,WUHU216HW,2013-05-10 02:31:00,
2013-05-09 22:36:00,65.2,50.0,29.87,SSE,158,0.0,0.0,58,0.00,,,0.00,WUHU216HW,2013-05-10 02:36:00,
2013-05-09 22:41:00,65.0,49.8,29.88,SSW,203,0.4,0.7,58,0.00,,,0.00,WUHU216HW,2013-05-10 02:41:00,
2013-05-09 22:46:00,64.8,49.6,29.88,NNE,23,0.0,1.6,58,0.00,,,0.00,WUHU216HW,2013-05-10 02:46:00,
2013-05-09 22:51:00,64.6,50.0,29.88,SE,135,0.4,1.6,59,0.00,,,0.00,WUHU216HW,2013-05-10 02:51:00,
2013-05-09 22:56:00,64.4,48.8,29.87,SE,135,0.2,1.6,57,0.00,,,0.00,WUHU216HW,2013-05-10 02:56:00,
2013-05-09 23:01:00,64.3,47.6,29.88,SE,135,1.6,1.6,55,0.00,,,0.00,WUHU216HW,2013-05-10 03:01:00,
2013-05-09 23:06:00,64.4,47.4,29.88,SSE,158,1.8,2.0,54,0.00,,,0.00,WUHU216HW,2013-05-10 03:06:00,
2013-05-09 23:11:00,64.4,46.8,29.88,SSE,158,0.9,2.7,53,0.00,,,0.00,WUHU216HW,2013-05-10 03:11:00,
2013-05-09 23:16:00,64.4,46.4,29.87,SSE,158,1.1,2.7,52,0.00,,,0.00,WUHU216HW,2013-05-10 03:16:00,
2013-05-09 23:21:00,64.6,46.0,29.87,SSE,158,1.1,1.8,51,0.00,,,0.00,WUHU216HW,2013-05-10 03:21:00,
2013-05-09 23:26:00,64.8,46.2,29.87,SSE,158,0.0,2.7,51,0.00,,,0.00,WUHU216HW,2013-05-10 03:26:00,
2013-05-09 23:31:00,64.8,46.2,29.87,SSE,158,0.0,2.7,51,0.00,,,0.00,WUHU216HW,2013-05-10 03:31:00,
2013-05-09 23:36:00,64.8,46.2,29.86,SSE,158,0.0,0.0,51,0.00,,,0.00,WUHU216HW,2013-05-10 03:36:00,
2013-05-09 23:41:00,64.6,46.5,29.86,SSE,158,0.0,0.0,52,0.00,,,0.00,WUHU216HW,2013-05-10 03:41:00,
2013-05-09 23:46:00,64.6,46.5,29.86,SSE,158,0.0,0.0,52,0.00,,,0.00,WUHU216HW,2013-05-10 03:46:00,
2013-05-09 23:51:00,64.4,46.4,29.86,SSE,158,0.0,0.0,52,0.00,,,0.00,WUHU216HW,2013-05-10 03:51:00,
2013-05-09 23:56:00,64.4,46.8,29.86,SSE,158,0.0,0.0,53,0.00,,,0.00,WUHU216HW,2013-05-10 03:56:00,